DW6162 Weather Reports


Display with metric or nautical units.
time (UTC)temp
F
wind
direction
speed
MPH
gust
MPH
rain 1hr
in
rain 24hr
in
rain mn
in
humidity
%
barometer
mb
20260906185249 70 45 1.0 7.0 0.00 0.00 0.00 68 1018.6
20260906184504 69 103 1.0 7.0 0.00 0.00 0.00 65 1017.1
20260906184349 69 357 3.0 6.0 0.00 0.00 0.00 65 1018.7
20260906183450 70 38 2.0 8.0 0.00 0.00 0.00 66 1018.7
20260906183103 69 36 1.0 7.0 0.00 0.00 0.00 69 1017.1
20260906181649 69 10 2.0 6.0 0.00 0.00 0.00 68 1018.8
20260906181503 68 335 1.0 3.0 0.00 0.00 0.00 70 1017.3
20260906180749 68 6 2.0 5.0 0.00 0.00 0.00 71 1018.9
20260906180115 68 49 2.0 5.0 0.00 0.00 0.00 72 1017.3
20260906175849 68 346 3.0 7.0 0.00 0.00 0.00 76 1019.0
20260906174949 68 9 2.0 7.0 0.00 0.00 0.00 75 1019.1
20260906174505 68 338 1.0 8.0 0.00 0.00 0.00 73 1017.4
20260906173149 67 350 1.0 5.0 0.00 0.00 0.00 77 1019.1
20260906173106 67 15 0.0 5.0 0.00 0.00 0.00 77 1017.5
20260906172248 66 336 2.0 5.0 0.00 0.00 0.00 79 1019.3
20260906171503 65 324 1.0 6.0 0.00 0.00 0.00 80 1017.8
20260906171349 66 342 3.0 7.0 0.00 0.00 0.00 78 1019.3
20260906170449 66 329 3.0 7.0 0.00 0.00 0.00 78 1019.2
20260906170103 66 270 3.0 7.0 0.00 0.00 0.00 78 1017.7
20260906164649 66 344 2.0 5.0 0.00 0.00 0.00 77 1019.1
20260906164504 66 36 2.0 5.0 0.00 0.00 0.00 77 1017.4
20260906163749 66 328 3.0 7.0 0.00 0.00 0.00 77 1019.1
20260906163123 67 336 2.0 7.0 0.00 0.00 0.00 76 1017.6
20260906162848 68 346 2.0 7.0 0.00 0.00 0.00 75 1019.2
20260906161949 68 21 2.0 6.0 0.00 0.00 0.00 72 1019.2
20260906161503 67 57 1.0 6.0 0.00 0.00 0.00 72 1017.6
20260906161048 68 15 1.0 7.0 0.00 0.00 0.00 74 1019.3
20260906160149 67 4 2.0 6.0 0.00 0.00 0.00 75 1019.3
20260906155248 66 22 2.0 6.0 0.00 0.00 0.00 77 1019.4
20260906154503 66 46 2.0 4.0 0.00 0.00 0.00 77 1017.9
20260906154348 66 35 2.0 4.0 0.00 0.00 0.00 76 1019.4
20260906153448 66 29 2.0 7.0 0.00 0.00 0.00 80 1019.3
20260906153118 65 30 1.0 6.0 0.00 0.00 0.00 79 1017.8
20260906152549 65 30 2.0 5.0 0.00 0.00 0.00 80 1019.3
20260906151503 64 36 1.0 6.0 0.00 0.00 0.00 82 1017.7
20260906150748 64 21 2.0 4.0 0.00 0.00 0.00 82 1019.4
20260906150108 63 8 1.0 4.0 0.00 0.00 0.00 82 1017.8
20260906145849 64 347 2.0 5.0 0.00 0.00 0.00 84 1019.3
20260906144948 63 347 2.0 6.0 0.00 0.00 0.00 85 1019.3
20260906144505 63 13 2.0 6.0 0.00 0.00 0.00 84 1017.7
20260906144049 63 356 3.0 9.0 0.00 0.00 0.00 85 1019.2
20260906143148 62 355 3.0 7.0 0.00 0.00 0.00 86 1019.2
20260906143102 62 34 4.0 7.0 0.00 0.00 0.00 86 1017.6
20260906142248 61 358 1.0 5.0 0.00 0.00 0.00 89 1019.1
20260906141502 60 341 2.0 5.0 0.00 0.00 0.00 88 1017.5
20260906141348 61 357 2.0 5.0 0.00 0.00 0.00 88 1019.2
20260906140448 60 351 1.0 5.0 0.00 0.00 0.00 91 1019.1
20260906140107 60 318 2.0 5.0 0.00 0.00 0.00 90 1017.5
20260906135548 60 353 2.0 5.0 0.00 0.00 0.00 91 1019.0
20260906134649 60 344 2.0 7.0 0.00 0.00 0.00 91 1018.9
20260906134503 59 12 2.0 7.0 0.00 0.00 0.00 92 1017.3
20260906133748 60 359 2.0 6.0 0.00 0.00 0.00 92 1018.9
20260906133131 59 354 2.0 4.0 0.00 0.00 0.00 93 1017.2
20260906132849 59 9 1.0 3.0 0.00 0.00 0.00 93 1018.8
20260906131948 59 21 1.0 3.0 0.00 0.00 0.00 94 1018.7
20260906131503 58 81 0.0 2.0 0.00 0.00 0.00 94 1017.1
20260906131048 58 348 1.0 3.0 0.00 0.00 0.00 95 1018.8
20260906130148 58 336 2.0 3.0 0.00 0.00 0.00 96 1018.7
20260906130113 58 351 1.0 3.0 0.00 0.00 0.00 96 1017.1
20260906125248 57 347 2.0 5.0 0.00 0.00 0.00 96 1018.6
20260906124502 57 325 1.0 5.0 0.00 0.00 0.00 96 1017.0
20260906124348 57 328 3.0 5.0 0.00 0.00 0.00 96 1018.7
20260906123448 58 337 2.0 4.0 0.00 0.00 0.00 96 1018.7
20260906123102 57 295 2.0 7.0 0.00 0.00 0.00 96 1017.1
20260906122548 57 331 2.0 7.0 0.00 0.00 0.00 97 1018.5
20260906121649 57 333 2.0 5.0 0.00 0.00 0.00 97 1018.4
20260906121502 57 350 2.0 5.0 0.00 0.00 0.00 97 1016.8
20260906120748 57 351 2.0 4.0 0.00 0.00 0.00 97 1018.3
20260906120105 57 342 1.0 5.0 0.00 0.00 0.00 97 1016.6
20260906115849 57 351 2.0 6.0 0.00 0.00 0.00 97 1018.1
20260906114948 57 336 1.0 3.0 0.00 0.00 0.00 97 1018.0
20260906114503 56 330 1.0 2.0 0.00 0.00 0.00 97 1016.4
20260906114049 57 340 2.0 3.0 0.00 0.00 0.00 97 1017.9
20260906113148 57 329 1.0 3.0 0.00 0.00 0.00 97 1017.8
20260906113102 56 338 1.0 3.0 0.00 0.00 0.00 97 1016.3
20260906112249 57 332 2.0 3.0 0.00 0.00 0.00 98 1017.8
20260906111502 56 341 1.0 4.0 0.00 0.00 0.00 98 1016.3
20260906110448 57 329 1.0 2.0 0.00 0.00 0.00 98 1017.6
20260906110104 56 339 1.0 3.0 0.00 0.00 0.00 98 1016.1
20260906105548 57 325 1.0 3.0 0.00 0.00 0.00 98 1017.6
20260906104648 57 324 1.0 2.0 0.00 0.00 0.00 97 1017.5
20260906104503 56 326 0.0 3.0 0.00 0.00 0.00 97 1015.9
20260906103748 57 327 2.0 3.0 0.00 0.00 0.00 97 1017.4
20260906103103 56 326 1.0 3.0 0.00 0.00 0.00 97 1016.0
20260906102848 56 335 1.0 2.0 0.00 0.00 0.00 97 1017.5
20260906101948 56 335 1.0 2.0 0.00 0.00 0.00 97 1017.4
20260906101503 56 336 0.0 2.0 0.00 0.00 0.00 97 1015.8
20260906101048 56 335 1.0 2.0 0.00 0.00 0.00 97 1017.4
20260906100148 57 333 1.0 2.0 0.00 0.00 0.00 98 1017.4
20260906100112 56 336 0.0 2.0 0.00 0.00 0.00 98 1015.8
20260906095248 57 322 1.0 3.0 0.00 0.00 0.00 98 1017.4
20260906094503 56 326 0.0 1.0 0.00 0.00 0.00 98 1015.9
20260906094348 56 326 0.0 1.0 0.00 0.00 0.00 98 1017.4
20260906093103 56 326 0.0 0.0 0.00 0.00 0.00 98 1015.7
20260906092548 56 0 0.0 0.0 0.00 0.00 0.00 98 1017.4
20260906091502 56 326 0.0 0.0 0.00 0.00 0.00 98 1015.6
20260906090748 56 0 0.0 0.0 0.00 0.00 0.00 98 1017.2
20260906090115 56 326 0.0 0.0 0.00 0.00 0.00 98 1015.6
20260906085848 56 0 0.0 0.0 0.00 0.00 0.00 98 1017.1
20260906084948 56 0 0.0 0.0 0.00 0.00 0.00 98 1017.0
20260906084502 56 326 0.0 0.0 0.00 0.00 0.00 98 1015.5
20260906084048 56 0 0.0 0.0 0.00 0.00 0.00 98 1016.9
20260906083103 56 326 0.0 0.0 0.00 0.00 0.00 98 1015.3
20260906082248 56 326 0.0 1.0 0.00 0.00 0.00 98 1016.7
20260906081502 56 326 0.0 1.0 0.00 0.00 0.00 98 1015.1
20260906081348 56 326 0.0 1.0 0.00 0.00 0.00 98 1016.6
20260906080448 56 333 1.0 2.0 0.00 0.00 0.00 98 1016.5
20260906075548 56 343 1.0 3.0 0.00 0.00 0.00 98 1016.4
20260906074648 56 33 1.0 2.0 0.00 0.00 0.00 98 1016.3
20260906074504 56 15 0.0 2.0 0.00 0.00 0.00 98 1014.9
20260906073748 56 355 1.0 2.0 0.00 0.00 0.00 98 1016.4
20260906073104 56 346 0.0 2.0 0.00 0.00 0.00 98 1014.7
20260906072848 56 351 1.0 3.0 0.00 0.00 0.00 98 1016.3
20260906071948 56 3 1.0 3.0 0.00 0.00 0.00 98 1016.3
20260906071502 55 350 1.0 2.0 0.00 0.00 0.00 98 1014.7
20260906065248 56 0 0.0 0.0 0.00 0.00 0.00 98 1016.1
20260906064502 55 53 0.0 0.0 0.00 0.00 0.00 98 1014.6
20260906064348 56 0 0.0 0.0 0.00 0.00 0.00 98 1016.1
20260906063448 56 54 0.0 1.0 0.00 0.00 0.00 98 1016.2
20260906063103 55 54 0.0 1.0 0.00 0.00 0.00 98 1014.6
20260906062548 56 55 0.0 1.0 0.00 0.00 0.00 98 1016.2
20260906061648 56 56 0.0 1.0 0.00 0.00 0.00 97 1016.2
20260906061503 55 55 0.0 0.0 0.00 0.00 0.00 97 1014.7
20260906060748 56 0 0.0 0.0 0.00 0.00 0.00 97 1016.2
20260906060105 55 56 0.0 1.0 0.00 0.00 0.00 97 1014.6
20260906055848 56 57 0.0 1.0 0.00 0.00 0.00 97 1016.4
20260906054948 56 51 0.0 2.0 0.00 0.00 0.00 97 1016.3
20260906054502 55 51 0.0 2.0 0.00 0.00 0.00 97 1014.8
20260906054048 56 355 1.0 2.0 0.00 0.00 0.00 97 1016.4
20260906053102 55 342 0.0 2.0 0.00 0.00 0.00 97 1014.7
20260906051503 55 327 0.0 0.0 0.00 0.00 0.00 96 1014.7
20260906051348 56 0 0.0 0.0 0.00 0.00 0.00 96 1016.4
20260906050103 56 328 0.0 0.0 0.00 0.00 0.00 96 1014.7
20260906044648 56 0 0.0 0.0 0.00 0.00 0.00 95 1016.4
20260906044503 56 327 0.0 0.0 0.00 0.00 0.00 95 1014.7
20260906043748 57 353 0.0 2.0 0.00 0.00 0.00 95 1016.3
20260906043103 57 327 0.0 2.0 0.00 0.00 0.00 95 1014.7
20260906042848 57 25 0.0 2.0 0.00 0.00 0.00 95 1016.5
20260906041948 57 17 1.0 3.0 0.00 0.00 0.00 95 1016.5
20260906041510 57 12 0.0 2.0 0.00 0.00 0.00 95 1014.8
20260906041048 57 12 1.0 2.0 0.00 0.00 0.00 95 1016.4
20260906040148 56 20 1.0 2.0 0.00 0.00 0.00 96 1016.4
20260906034502 56 20 0.0 0.0 0.00 0.00 0.00 94 1014.5
20260906034348 56 0 0.0 0.0 0.00 0.00 0.00 94 1016.2
20260906033106 57 20 0.0 0.0 0.00 0.00 0.00 92 1014.4
20260906032548 58 20 0.0 1.0 0.00 0.00 0.00 92 1016.0
20260906031648 58 20 0.0 1.0 0.00 0.00 0.00 92 1016.2
20260906031502 58 20 0.0 1.0 0.00 0.00 0.00 92 1014.3
20260906030748 58 7 0.0 1.0 0.00 0.00 0.00 91 1016.2
20260906025848 59 330 1.0 2.0 0.00 0.00 0.00 91 1016.1
20260906024948 59 332 1.0 3.0 0.00 0.00 0.00 90 1016.1
20260906024503 59 318 1.0 3.0 0.00 0.00 0.00 90 1014.2
20260906023148 59 343 0.0 3.0 0.00 0.00 0.00 90 1016.1
20260906023103 59 328 0.0 3.0 0.00 0.00 0.00 90 1014.2
20260906021508 59 318 1.0 4.0 0.00 0.00 0.00 89 1014.2
20260906021348 60 329 2.0 4.0 0.00 0.00 0.00 89 1016.0
20260906020448 59 338 2.0 4.0 0.00 0.00 0.00 89 1015.9
20260906015548 60 335 1.0 2.0 0.00 0.00 0.00 88 1016.0
20260906014648 60 331 0.0 1.0 0.00 0.00 0.00 88 1016.1
20260906014508 59 330 0.0 1.0 0.00 0.00 0.00 88 1014.2
20260906013748 60 331 0.0 1.0 0.00 0.00 0.00 87 1015.9
20260906013106 60 332 0.0 0.0 0.00 0.00 0.00 86 1014.0
20260906011948 61 331 0.0 2.0 0.00 0.00 0.00 84 1015.8
20260906011503 61 332 0.0 3.0 0.00 0.00 0.00 84 1013.9
20260906011048 62 330 2.0 4.0 0.00 0.00 0.00 84 1015.7
20260906010148 62 326 2.0 4.0 0.00 0.00 0.00 84 1015.7
20260906005248 62 341 2.0 4.0 0.00 0.00 0.00 84 1015.8
20260906004502 61 4 1.0 2.0 0.00 0.00 0.00 83 1013.7
20260906004348 62 343 2.0 2.0 0.00 0.00 0.00 83 1015.8
20260906003108 62 330 1.0 3.0 0.00 0.00 0.00 82 1013.5
20260906002548 62 328 2.0 3.0 0.00 0.00 0.00 82 1015.5
20260906001648 63 327 2.0 4.0 0.00 0.00 0.00 81 1015.5
20260906001502 62 301 2.0 4.0 0.00 0.00 0.00 81 1013.4
20260906000748 63 327 2.0 3.0 0.00 0.00 0.00 80 1015.5
20260905235848 63 320 2.0 3.0 0.00 0.00 0.00 80 1015.4
20260905234503 63 333 1.0 2.0 0.00 0.00 0.00 80 1013.1
20260905234048 64 332 1.0 3.0 0.00 0.00 0.00 79 1015.1
20260905233148 64 322 1.0 3.0 0.00 0.00 0.00 79 1015.3
20260905233132 64 318 1.0 3.0 0.00 0.00 0.00 78 1013.2
20260905231502 64 323 1.0 2.0 0.00 0.00 0.00 77 1013.2
20260905231348 65 332 2.0 3.0 0.00 0.00 0.00 77 1015.3
20260905230448 65 324 2.0 3.0 0.00 0.00 0.00 76 1015.4
20260905225548 66 321 1.0 2.0 0.00 0.00 0.00 76 1015.2
20260905224648 66 326 2.0 3.0 0.00 0.00 0.00 76 1015.2
20260905224510 66 32 1.0 3.0 0.00 0.00 0.00 75 1013.1
20260905223748 66 315 2.0 3.0 0.00 0.00 0.00 75 1015.2
20260905223107 66 322 2.0 3.0 0.00 0.00 0.00 74 1012.9
20260905222848 67 330 2.0 3.0 0.00 0.00 0.00 74 1015.0
20260905221948 67 327 2.0 5.0 0.00 0.00 0.00 73 1015.0
20260905221502 67 308 1.0 4.0 0.00 0.00 0.00 71 1012.9
20260905220148 69 339 2.0 5.0 0.00 0.00 0.00 69 1014.8
20260905220105 68 333 3.0 5.0 0.00 0.00 0.00 69 1012.7
20260905215248 69 335 3.0 5.0 0.00 0.00 0.00 69 1014.9
20260905214503 69 19 2.0 7.0 0.00 0.00 0.00 67 1012.6
20260905214348 69 337 3.0 6.0 0.00 0.00 0.00 68 1014.8
20260905213447 70 349 3.0 6.0 0.00 0.00 0.00 68 1014.8
20260905213102 69 354 3.0 5.0 0.00 0.00 0.00 68 1012.4
20260905212548 69 350 2.0 5.0 0.00 0.00 0.00 66 1014.7
20260905211503 69 5 1.0 4.0 0.00 0.00 0.00 67 1012.4
20260905210748 69 330 2.0 5.0 0.00 0.00 0.00 67 1014.6
20260905205847 69 329 3.0 5.0 0.00 0.00 0.00 69 1014.7
20260905204947 69 333 3.0 6.0 0.00 0.00 0.00 68 1014.7
20260905204503 69 322 3.0 5.0 0.00 0.00 0.00 67 1012.6
20260905204047 70 349 3.0 6.0 0.00 0.00 0.00 66 1014.9
20260905203147 71 347 3.0 4.0 0.00 0.00 0.00 65 1014.7
20260905203105 70 29 2.0 5.0 0.00 0.00 0.00 65 1012.5
20260905202248 71 341 2.0 8.0 0.00 0.00 0.00 62 1014.7
20260905201503 71 319 0.0 6.0 0.00 0.00 0.00 62 1012.5
20260905201347 71 338 3.0 6.0 0.00 0.00 0.00 61 1014.7
20260905200104 70 311 2.0 6.0 0.00 0.00 0.00 64 1012.5
20260905195547 71 332 4.0 9.0 0.00 0.00 0.00 64 1014.7
20260905194648 71 327 3.0 10.0 0.00 0.00 0.00 67 1014.7
20260905194502 70 238 2.0 9.0 0.00 0.00 0.00 63 1012.3
20260905193102 70 319 3.0 7.0 0.00 0.00 0.00 62 1012.5
20260905192847 70 345 2.0 6.0 0.00 0.00 0.00 64 1014.7
20260905191948 70 345 2.0 6.0 0.00 0.00 0.00 68 1014.7
20260905191502 69 333 3.0 6.0 0.00 0.00 0.00 66 1012.5
20260905191047 69 327 3.0 6.0 0.00 0.00 0.00 66 1014.9
20260905190147 69 332 3.0 7.0 0.00 0.00 0.00 68 1014.9
20260905190137 69 301 3.0 6.0 0.00 0.00 0.00 67 1012.6